Location: Unspecified
(0.0000°N, 0.0000°E)
Time: 01:12:13
(UTC+00:00)

ITAMSAT 1 - Pass Details

Date: 12 December 2017
Orbit: 783 x 797 km, 98.8° (Epoch: 16 January)

Event Time Altitude Azimuth Distance (km) Brightness Sun altitude
Exits shadow 03:39:32 20° 196° (SSW) 1,764 9.5 -30.5°
Drops below altitude 10° 03:41:01 10° 195° (SSW) 2,341 10.2 -30.2°
Sets 03:43:21 0° 194° (SSW) 3,273 11.0 -29.7°
